Location: Michelbach Markt
(48.1000°N, 15.7500°E)
Time: 16:43:26
(UTC+02:00)

Envisat - Pass Details

Date: 04 February 2022
Orbit: 764 x 765 km, 98.2° (Epoch: 17 May)

Event Time Altitude Azimuth Distance (km) Brightness Sun altitude
Rises 06:21:37 0° 2° (N) 3,244 6.1 -10.3°
Reaches altitude 10° 06:24:26 10° 347° (NNW) 2,313 5.2 -9.8°
Maximum altitude 06:28:07 21° 301° (WNW) 1,688 4.2 -9.2°
Drops below altitude 10° 06:31:49 10° 254° (WSW) 2,304 5.0 -8.6°
Sets 06:34:37 0° 238° (WSW) 3,226 5.8 -8.1°
